Погода в Твери

Россия / Тверская область     56˚51′34″N   35˚54′42″E
темп.,
°C
ветер,
м/с
пор.,
м/с
влажн.,
%
обл.,
%
осадки,
мм/ч
давл.,
гПа
погр.,
м
5 декабря, сб
сб500:00−4˚ююв398993 0.0 1033352
03:00−4˚ю4118668 0.0 1034426
06:00−5˚ю4118812 0.0 1034346
09:00−4˚ююв4119115 0.0 1034367
12:00−3˚ю510870 0.0 1035426
15:00−3˚ю411840 0.0 1035399
18:00−5˚ю412830 0.0 1035349
21:00−5˚ю511800 0.0 1036326
6 декабря, вс
вс600:00−5˚ю512790 0.0 1037303
03:00−6˚ю410780 0.0 1038275
06:00−6˚ю410760 0.0 1038256
09:00−7˚ю410740 0.0 1039252
12:00−5˚ю410710 0.0 1040285
15:00−5˚ю49740 0.0 1040219
18:00−7˚ю38780 0.0 1040148
21:00−7˚ю36790 0.0 1042140
7 декабря, пн
пн700:00−7˚ю36801 0.0 1042133
03:00−7˚ю36827 0.0 1042116
06:00−7˚ю368411 0.0 1042133
09:00−8˚ю368541 0.0 1042120
12:00−5˚ю377851 0.0 1042239
15:00−5˚ююв258334 0.0 1042107
18:00−6˚ююв348515 0.0 104285
21:00−7˚ююв338410 0.0 104288
8 декабря, вт
вт800:00−7˚ююв23828 0.0 104164
03:00−7˚ююв23814 0.0 104167
06:00−8˚ююв33810 0.0 104164
09:00−8˚ююв23780 0.0 104158
12:00−5˚ююв25730 0.0 1041206
15:00−5˚юв23770 0.0 104060
18:00−7˚юв36810 0.0 1040104
21:00−7˚юв36800 0.0 1039116
9 декабря, ср
ср900:00−8˚юв36800 0.0 1039112
03:00−8˚юв36819 0.0 1039115
06:00−8˚юв368236 0.0 1038120
09:00−8˚юв368318 0.0 1038111
12:00−6˚юв37780 0.0 1038286
15:00−6˚юв36840 0.0 1037187
18:00−8˚юв37950 0.0 1036206
21:00−8˚юв379410 0.0 1036206